When you browse on this site, cookies collect data to enhance your experience and personalize the content and advertising you see.
Visit our Privacy Policy to learn more. By continuing to use the site, you agree to this use of cookies and data.
  • In Switzerland
  • List of Countries
  • For 7 days
  • Water Temperature
  • Weather Map
  • Weather Widgets
  • user-avatar
    Login

    Hourly Weather Yanmen

    Today, 28 May, Thursday

    Time Temperature Precipitation Wind Pressure Humidity
    00:00 +19°C° 0 mm 0 mps 737 mmHg 88%
    01:00 +19°C° 0 mm 0 mps 736 mmHg 86%
    02:00 +19°C° 0 mm 0 mps 736 mmHg 86%
    03:00 +19°C° 0 mm 0 mps 736 mmHg 86%
    04:00 +19°C° 0 mm 0 mps 736 mmHg 86%
    05:00 +20°C° 0 mm 0 mps 736 mmHg 84%
    06:00 +21°C° 0 mm 0 mps 736 mmHg 83%
    07:00 +22°C° 0 mm 0 mps 737 mmHg 78%
    08:00 +24°C° 0 mm 0 mps 737 mmHg 73%
    09:00 +25°C° 0 mm 0 mps 737 mmHg 69%
    10:00 +28°C° 0 mm 1 mps 737 mmHg 64%
    11:00 +28°C° 0 mm 1 mps 737 mmHg 64%
    12:00 +28°C° 0 mm 1 mps 736 mmHg 65%
    13:00 +26°C° 0 mm 0 mps 736 mmHg 65%
    14:00 +25°C° 0.1 mm 0 mps 735 mmHg 70%
    15:00 +24°C° 0.1 mm 0 mps 735 mmHg 76%
    16:00 +22°C° 0.1 mm 0 mps 735 mmHg 81%
    17:00 +22°C° 0 mm 0 mps 735 mmHg 81%
    18:00 +22°C° 0 mm 0 mps 735 mmHg 81%
    19:00 +21°C° 0 mm 0 mps 735 mmHg 82%
    20:00 +21°C° 0 mm 0 mps 735 mmHg 82%
    21:00 +21°C° 0 mm 0 mps 736 mmHg 82%
    22:00 +21°C° 0 mm 0 mps 736 mmHg 82%
    23:00 +21°C° 0 mm 0 mps 736 mmHg 83%

    Tomorrow, 29 May, Friday

    Time Temperature Precipitation Wind Pressure Humidity
    00:00 +20°C° 0 mm 0 mps 735 mmHg 83%
    01:00 +20°C° 0 mm 0 mps 735 mmHg 83%
    02:00 +20°C° 1.1 mm 0 mps 735 mmHg 88%
    03:00 +19°C° 1.1 mm 0 mps 735 mmHg 92%
    04:00 +19°C° 1.1 mm 0 mps 734 mmHg 96%
    05:00 +19°C° 2.9 mm 0 mps 735 mmHg 97%
    06:00 +19°C° 2.9 mm 0 mps 735 mmHg 98%
    07:00 +18°C° 2.9 mm 0 mps 735 mmHg 98%
    08:00 +19°C° 1.4 mm 0 mps 735 mmHg 98%
    09:00 +19°C° 1.4 mm 0 mps 735 mmHg 97%
    10:00 +19°C° 1.4 mm 0 mps 735 mmHg 96%
    11:00 +20°C° 0.1 mm 0 mps 735 mmHg 93%
    12:00 +23°C° 0.1 mm 1 mps 735 mmHg 91%
    13:00 +24°C° 0.1 mm 1 mps 734 mmHg 88%
    14:00 +24°C° 0 mm 1 mps 734 mmHg 86%
    15:00 +24°C° 0 mm 1 mps 733 mmHg 84%
    16:00 +25°C° 0 mm 2 mps 733 mmHg 83%
    17:00 +24°C° 0 mm 1 mps 733 mmHg 87%
    18:00 +23°C° 0 mm 1 mps 733 mmHg 92%
    19:00 +20°C° 0 mm 0 mps 734 mmHg 96%
    20:00 +19°C° 0 mm 0 mps 734 mmHg 96%
    21:00 +19°C° 0 mm 0 mps 734 mmHg 96%
    22:00 +19°C° 0 mm 0 mps 735 mmHg 96%
    23:00 +18°C° 0 mm 0 mps 734 mmHg 96%

    Day after tomorrow, 30 May, Saturday

    Time Temperature Precipitation Wind Pressure Humidity
    00:00 +18°C° 0 mm 0 mps 734 mmHg 96%
    01:00 +18°C° 0 mm 0 mps 734 mmHg 96%
    02:00 +18°C° 0 mm 0 mps 734 mmHg 97%
    03:00 +18°C° 0 mm 0 mps 734 mmHg 97%
    04:00 +18°C° 0 mm 0 mps 734 mmHg 97%
    05:00 +19°C° 0 mm 0 mps 734 mmHg 94%
    06:00 +20°C° 0 mm 0 mps 735 mmHg 91%
    07:00 +22°C° 0 mm 0 mps 735 mmHg 88%
    08:00 +24°C° 0 mm 0 mps 735 mmHg 82%
    09:00 +26°C° 0 mm 0 mps 735 mmHg 75%
    10:00 +29°C° 0 mm 0 mps 735 mmHg 68%
    11:00 +30°C° 0 mm 0 mps 735 mmHg 65%
    12:00 +30°C° 0 mm 0 mps 734 mmHg 62%
    13:00 +33°C° 0 mm 1 mps 734 mmHg 59%
    14:00 +33°C° 0 mm 1 mps 734 mmHg 61%
    15:00 +32°C° 0 mm 1 mps 733 mmHg 62%
    16:00 +32°C° 0 mm 1 mps 733 mmHg 63%
    17:00 +30°C° 0 mm 1 mps 733 mmHg 70%
    18:00 +26°C° 0 mm 0 mps 733 mmHg 77%
    19:00 +25°C° 0 mm 0 mps 733 mmHg 83%
    20:00 +24°C° 0.2 mm 0 mps 733 mmHg 84%
    21:00 +24°C° 0.2 mm 0 mps 734 mmHg 85%
    22:00 +24°C° 0.2 mm 0 mps 734 mmHg 86%
    23:00 +23°C° 1.5 mm 0 mps 734 mmHg 89%

    31 May, Sunday

    Time Temperature Precipitation Wind Pressure Humidity
    00:00 +25°C° 1.5 mm 1 mps 734 mmHg 93%
    01:00 +24°C° 1.5 mm 1 mps 734 mmHg 96%
    02:00 +24°C° 1 mm 1 mps 734 mmHg 96%
    03:00 +22°C° 1 mm 0 mps 734 mmHg 97%
    04:00 +22°C° 1 mm 0 mps 734 mmHg 98%
    05:00 +24°C° 0.8 mm 1 mps 734 mmHg 98%
    06:00 +24°C° 0.8 mm 1 mps 734 mmHg 98%
    07:00 +24°C° 0.8 mm 1 mps 734 mmHg 98%
    08:00 +24°C° 4.8 mm 1 mps 735 mmHg 98%
    09:00 +24°C° 4.8 mm 1 mps 735 mmHg 99%
    10:00 +24°C° 4.8 mm 1 mps 735 mmHg 99%
    11:00 +23°C° 4.8 mm 1 mps 735 mmHg 98%
    12:00 +21°C° 4.8 mm 2 mps 735 mmHg 97%
    13:00 +21°C° 4.8 mm 2 mps 734 mmHg 96%
    14:00 +21°C° 0.4 mm 2 mps 734 mmHg 96%
    15:00 +22°C° 0.4 mm 1 mps 734 mmHg 95%
    16:00 +22°C° 0.4 mm 1 mps 734 mmHg 95%
    17:00 +22°C° 0 mm 1 mps 734 mmHg 95%
    18:00 +20°C° 0 mm 0 mps 734 mmHg 95%
    19:00 +20°C° 0 mm 0 mps 735 mmHg 95%
    20:00 +20°C° 0 mm 0 mps 735 mmHg 95%
    21:00 +19°C° 0 mm 0 mps 736 mmHg 95%
    22:00 +19°C° 0 mm 0 mps 736 mmHg 95%
    23:00 +19°C° 0 mm 0 mps 736 mmHg 95%

    1 June, Monday

    Time Temperature Precipitation Wind Pressure Humidity
    00:00 +19°C° 0 mm 0 mps 735 mmHg 95%
    01:00 +18°C° 0 mm 0 mps 735 mmHg 95%
    02:00 +18°C° 0 mm 0 mps 735 mmHg 95%
    03:00 +18°C° 0 mm 0 mps 735 mmHg 95%
    04:00 +18°C° 0 mm 0 mps 735 mmHg 95%
    05:00 +19°C° 0 mm 0 mps 735 mmHg 93%
    06:00 +20°C° 0 mm 0 mps 736 mmHg 91%
    07:00 +21°C° 0 mm 0 mps 736 mmHg 89%
    08:00 +23°C° 0 mm 0 mps 736 mmHg 81%
    09:00 +25°C° 0 mm 0 mps 736 mmHg 74%
    10:00 +29°C° 0 mm 1 mps 736 mmHg 66%
    11:00 +30°C° 0 mm 1 mps 736 mmHg 63%
    12:00 +31°C° 0 mm 1 mps 735 mmHg 60%
    13:00 +31°C° 0 mm 1 mps 735 mmHg 57%
    14:00 +31°C° 0 mm 1 mps 734 mmHg 58%
    15:00 +31°C° 0 mm 1 mps 734 mmHg 59%
    16:00 +31°C° 0 mm 1 mps 733 mmHg 60%
    17:00 +29°C° 0 mm 1 mps 733 mmHg 67%
    18:00 +25°C° 0 mm 0 mps 734 mmHg 73%
    19:00 +23°C° 0 mm 0 mps 734 mmHg 80%
    20:00 +23°C° 0 mm 0 mps 734 mmHg 81%
    21:00 +23°C° 0 mm 0 mps 734 mmHg 82%
    22:00 +22°C° 0 mm 0 mps 734 mmHg 84%
    23:00 +22°C° 0 mm 0 mps 734 mmHg 85%

    2 June, Tuesday

    Time Temperature Precipitation Wind Pressure Humidity
    00:00 +22°C° 0 mm 0 mps 734 mmHg 86%
    01:00 +24°C° 0 mm 1 mps 733 mmHg 87%
    02:00 +21°C° 0.9 mm 0 mps 733 mmHg 90%
    03:00 +21°C° 0.9 mm 0 mps 733 mmHg 93%
    04:00 +21°C° 0.9 mm 0 mps 733 mmHg 95%
    05:00 +21°C° 3.3 mm 0 mps 733 mmHg 96%
    06:00 +21°C° 3.3 mm 0 mps 733 mmHg 97%
    07:00 +21°C° 3.3 mm 0 mps 733 mmHg 98%
    08:00 +22°C° 1.3 mm 0 mps 733 mmHg 98%
    09:00 +22°C° 1.3 mm 0 mps 733 mmHg 97%
    10:00 +22°C° 1.3 mm 0 mps 733 mmHg 97%
    11:00 +22°C° 0.5 mm 0 mps 733 mmHg 96%
    12:00 +23°C° 0.5 mm 0 mps 733 mmHg 96%
    13:00 +23°C° 0.5 mm 0 mps 732 mmHg 95%
    14:00 +23°C° 0.5 mm 0 mps 732 mmHg 95%
    15:00 +23°C° 0.5 mm 0 mps 732 mmHg 96%
    16:00 +23°C° 0.5 mm 0 mps 731 mmHg 96%
    17:00 +23°C° 0 mm 0 mps 731 mmHg 96%
    18:00 +22°C° 0 mm 0 mps 731 mmHg 97%
    19:00 +22°C° 0 mm 0 mps 732 mmHg 98%
    20:00 +22°C° 0.7 mm 0 mps 732 mmHg 98%
    21:00 +22°C° 0.7 mm 0 mps 732 mmHg 98%
    22:00 +22°C° 0.7 mm 0 mps 733 mmHg 98%
    23:00 +22°C° 1.5 mm 0 mps 732 mmHg 98%
    Show more